Weather History for Cooperstown, ND

Change the Weather History Date:

Friday, May 10, 2013

  Actual Average (KJMS) Record (KJMS)
Temperature  
Mean Temperature 49 °F 53 °F  
Max Temperature 68 °F 66 °F 96 °F (1987)
Min Temperature 30 °F 40 °F 20 °F (1946)
Degree Days  
Heating Degree Days 16 12  
Month to date heating degree days 138  
Since 1 July heating degree days 8732  
Cooling Degree Days 0 0  
Month to date cooling degree days 0  
Year to date cooling degree days 2  
Moisture  
Dew Point 33 °F    
Average Humidity 59    
Maximum Humidity 93    
Minimum Humidity 26    
Precipitation  
Precipitation 0.00 in 0.09 in 1.44 in (1999)
Month to date precipitation 0.76  
Year to date precipitation 3.65  
Sea Level Pressure  
Sea Level Pressure 30.06 in    
Wind  
Wind Speed 12 mph (NW)    
Max Wind Speed 34 mph    
Max Gust Speed 45 mph    
Visibility 10 miles    
Events      
T = Trace of Precipitation, MM = Missing Value Source: NWS Daily Summary

Daily Weather History Graph

Daily Weather History Graph

Search for Another Location

Airport:

Trip Planner

Search our weather history database for the weather conditions in past years. The results will help you decide how hot, cold, wet, or windy it might be!

Date:

Astronomy

May. 10, 2013 Rise Set
Actual Time 6:01 AM CDT 8:56 PM CDT
Civil Twilight 5:26 AM CDT 9:32 PM CDT
Nautical Twilight 4:40 AM CDT 10:18 PM CDT
Astronomical Twilight 3:45 AM CDT 11:13 PM CDT
Moon 6:26 AM CDT (5/10) 9:49 PM CDT (5/10)
Length of Visible Light 16h 06m
Length of Day
14h 54m
New Moon, 0% of the Moon is Illuminated
May 10
New Moon
May 17
First Quarter
May 24
Full
May 31
Last Quarter
Jun 8
New

Hourly Weather History & Observations

Time (CDT) Temp. Windchill Dew Point Humidity Pressure Visibility Wind Dir Wind Speed Gust Speed Precip Events Conditions
12:15 AM 41.0 °F 35.2 °F 26.6 °F 57% 30.18 in 10.0 mi ENE 9.2 mph - N/A   Clear
12:35 AM 41.0 °F 34.7 °F 26.6 °F 57% 30.18 in 10.0 mi ENE 10.4 mph - N/A   Clear
12:55 AM 41.0 °F 34.7 °F 26.6 °F 57% 30.18 in 10.0 mi NE 10.4 mph - N/A   Clear
1:15 AM 39.2 °F 33.0 °F 26.6 °F 61% 30.18 in 10.0 mi ENE 9.2 mph - N/A   Clear
1:55 AM 37.4 °F 31.4 °F 26.6 °F 65% 30.16 in 10.0 mi ENE 8.1 mph - N/A   Clear
2:15 AM 37.4 °F 31.4 °F 26.6 °F 65% 30.16 in 10.0 mi ENE 8.1 mph - N/A   Clear
2:35 AM 35.6 °F - 26.6 °F 70% 30.16 in 10.0 mi Calm Calm - N/A   Clear
2:55 AM 35.6 °F - 26.6 °F 70% 30.15 in 10.0 mi Calm Calm - N/A   Clear
3:15 AM 35.6 °F - 26.6 °F 70% 30.14 in 10.0 mi Calm Calm - N/A   Clear
3:35 AM 32.0 °F 26.4 °F 26.6 °F 80% 30.13 in 10.0 mi SE 5.8 mph - N/A   Clear
3:55 AM 32.0 °F 27.5 °F 26.6 °F 80% 30.13 in 10.0 mi SSE 4.6 mph - N/A   Clear
4:15 AM 32.0 °F - 26.6 °F 80% 30.12 in 10.0 mi Calm Calm - N/A   Clear
4:35 AM 32.0 °F - 26.6 °F 80% 30.12 in 10.0 mi Calm Calm - N/A   Clear
4:55 AM 32.0 °F - 26.6 °F 80% 30.11 in 10.0 mi Calm Calm - N/A   Clear
5:15 AM 30.2 °F 26.7 °F 26.6 °F 86% 30.11 in 10.0 mi South 3.5 mph - N/A   Clear
5:35 AM 30.2 °F 24.3 °F 26.6 °F 86% 30.10 in 10.0 mi South 5.8 mph - N/A   Clear
5:55 AM 32.0 °F 26.4 °F 28.4 °F 87% 30.10 in 10.0 mi South 5.8 mph - N/A   Clear
6:15 AM 32.0 °F 25.6 °F 28.4 °F 87% 30.10 in 10.0 mi South 6.9 mph - N/A   Clear
6:35 AM 32.0 °F 27.5 °F 28.4 °F 87% 30.09 in 10.0 mi SSW 4.6 mph - N/A   Clear
6:55 AM 33.8 °F 28.6 °F 32.0 °F 93% 30.09 in 10.0 mi South 5.8 mph - N/A   Clear
7:15 AM 37.4 °F 30.8 °F 33.8 °F 87% 30.08 in 10.0 mi South 9.2 mph - N/A   Clear
7:35 AM 41.0 °F 34.3 °F 37.4 °F 87% 30.08 in 10.0 mi SSW 11.5 mph - N/A   Clear
7:55 AM 44.6 °F 38.8 °F 41.0 °F 87% 30.08 in 10.0 mi SSW 11.5 mph - N/A   Clear
8:15 AM 46.4 °F 40.7 °F 42.8 °F 87% 30.07 in 10.0 mi SSW 12.7 mph - N/A   Clear
8:35 AM 50.0 °F - 44.6 °F 82% 30.07 in 10.0 mi SSW 17.3 mph 23.0 mph N/A   Clear
8:55 AM 50.0 °F - 44.6 °F 82% 30.06 in 10.0 mi SSW 17.3 mph 26.5 mph N/A   Clear
9:15 AM 51.8 °F - 44.6 °F 76% 30.06 in 10.0 mi SW 19.6 mph 24.2 mph N/A   Clear
9:35 AM 53.6 °F - 46.4 °F 77% 30.06 in 10.0 mi SW 16.1 mph 24.2 mph N/A   Clear
9:55 AM 55.4 °F - 46.4 °F 72% 30.05 in 10.0 mi SSW 17.3 mph - N/A   Clear
10:15 AM 57.2 °F - 46.4 °F 67% 30.05 in 10.0 mi SSW 17.3 mph 24.2 mph N/A   Clear
10:35 AM 59.0 °F - 44.6 °F 59% 30.04 in 10.0 mi SSW 16.1 mph 25.3 mph N/A   Clear
10:55 AM 59.0 °F - 39.2 °F 48% 30.03 in 10.0 mi WSW 17.3 mph 24.2 mph N/A   Clear
11:15 AM 60.8 °F - 32.0 °F 34% 30.01 in 10.0 mi SW 15.0 mph 21.9 mph N/A   Clear
11:35 AM 62.6 °F - 32.0 °F 32% 29.99 in 10.0 mi SW 16.1 mph 23.0 mph N/A   Scattered Clouds
11:55 AM 64.4 °F - 33.8 °F 32% 29.98 in 10.0 mi SW 19.6 mph 26.5 mph N/A   Partly Cloudy
12:15 PM 64.4 °F - 32.0 °F 30% 29.97 in 10.0 mi SW 17.3 mph 27.6 mph N/A   Clear
12:35 PM 66.2 °F - 32.0 °F 28% 29.96 in 10.0 mi SW 21.9 mph 27.6 mph N/A   Clear
12:55 PM 66.2 °F - 32.0 °F 28% 29.95 in 10.0 mi WSW 19.6 mph 29.9 mph N/A   Clear
1:15 PM 68.0 °F - 32.0 °F 26% 29.94 in 10.0 mi WSW 20.7 mph 26.5 mph N/A   Clear
1:35 PM 68.0 °F - 33.8 °F 28% 29.93 in 10.0 mi West 26.5 mph 33.4 mph N/A   Clear
1:55 PM 66.2 °F - 35.6 °F 32% 29.93 in 10.0 mi WNW 27.6 mph 34.5 mph N/A   Partly Cloudy
2:15 PM 68.0 °F - 35.6 °F 30% 29.93 in 10.0 mi WNW 27.6 mph 33.4 mph N/A   Partly Cloudy
2:35 PM 66.2 °F - 35.6 °F 32% 29.93 in 10.0 mi NW 27.6 mph 34.5 mph N/A   Scattered Clouds
2:55 PM 68.0 °F - 35.6 °F 30% 29.93 in 10.0 mi NW 32.2 mph 36.8 mph N/A   Partly Cloudy
3:35 PM 64.4 °F - 35.6 °F 34% 29.94 in 10.0 mi NNW 27.6 mph 35.7 mph N/A   Clear
3:55 PM 62.6 °F - 35.6 °F 37% 29.94 in 10.0 mi NNW 27.6 mph 36.8 mph N/A   Clear
4:15 PM 62.6 °F - 39.2 °F 42% 29.95 in 10.0 mi NNW 28.8 mph 44.9 mph N/A   Clear
4:35 PM 60.8 °F - 37.4 °F 42% 29.96 in 10.0 mi NNW 33.4 mph 43.7 mph N/A   Clear
4:55 PM 59.0 °F - 37.4 °F 45% 29.97 in 10.0 mi North 34.5 mph 41.4 mph N/A   Clear
5:15 PM 59.0 °F - 39.2 °F 48% 29.99 in 10.0 mi North 31.1 mph 43.7 mph N/A   Partly Cloudy
5:35 PM 57.2 °F - 39.2 °F 51% 30.00 in 10.0 mi North 31.1 mph 39.1 mph N/A   Partly Cloudy
5:55 PM 55.4 °F - 37.4 °F 51% 30.01 in 10.0 mi North 29.9 mph 43.7 mph N/A   Clear
6:15 PM 55.4 °F - 35.6 °F 47% 30.02 in 10.0 mi North 29.9 mph 39.1 mph N/A   Clear
6:35 PM 55.4 °F - 32.0 °F 41% 30.02 in 10.0 mi North 27.6 mph 36.8 mph N/A   Clear
6:55 PM 55.4 °F - 32.0 °F 41% 30.03 in 10.0 mi North 25.3 mph 33.4 mph N/A   Clear
7:15 PM 53.6 °F - 32.0 °F 44% 30.04 in 10.0 mi North 24.2 mph 32.2 mph N/A   Clear
7:35 PM 53.6 °F - 32.0 °F 44% 30.05 in 10.0 mi North 20.7 mph 31.1 mph N/A   Clear
7:55 PM 51.8 °F - 30.2 °F 44% 30.05 in 10.0 mi North 23.0 mph 26.5 mph N/A   Clear
8:15 PM 50.0 °F - 28.4 °F 43% 30.06 in 10.0 mi NNE 21.9 mph 26.5 mph N/A   Clear
8:35 PM 48.2 °F - 26.6 °F 43% 30.07 in 10.0 mi North 15.0 mph - N/A   Clear
8:55 PM 48.2 °F - 32.0 °F 54% 30.08 in 10.0 mi NE 15.0 mph - N/A   Clear
9:15 PM 46.4 °F 40.7 °F 32.0 °F 57% 30.10 in 10.0 mi NE 12.7 mph - N/A   Clear
9:35 PM 44.6 °F 38.8 °F 32.0 °F 61% 30.11 in 10.0 mi NNE 11.5 mph 17.3 mph N/A   Clear
9:55 PM 42.8 °F 37.0 °F 30.2 °F 61% 30.12 in 10.0 mi NNE 10.4 mph - N/A   Clear
10:15 PM 41.0 °F 36.4 °F 30.2 °F 65% 30.14 in 10.0 mi NNE 6.9 mph - N/A   Clear
10:35 PM 39.2 °F 34.2 °F 32.0 °F 75% 30.14 in 10.0 mi North 6.9 mph - N/A   Scattered Clouds
10:55 PM 39.2 °F 35.0 °F 33.8 °F 81% 30.15 in 10.0 mi North 5.8 mph - N/A   Scattered Clouds
11:15 PM 39.2 °F 34.2 °F 32.0 °F 75% 30.15 in 10.0 mi NNW 6.9 mph - N/A   Scattered Clouds
11:35 PM 37.4 °F 32.1 °F 28.4 °F 70% 30.16 in 10.0 mi NW 6.9 mph - N/A   Partly Cloudy
11:55 PM 35.6 °F 29.2 °F 30.2 °F 81% 30.17 in 10.0 mi NW 8.1 mph - N/A   Clear